Location: Geçitköy
(36.7327°N, 29.8010°E)
Time: 18:47:51
(UTC+00:00)

Cosmos 1741 Rocket - Pass Details

Date: 12 January 2026
Orbit: 758 x 777 km, 74.0° (Epoch: 10 February)

Event Time Altitude Azimuth Distance (km) Brightness Sun altitude
Rises 17:04:22 0° 341° (NNW) 3,231 7.3 -23.4°
Reaches altitude 10° 17:06:45 10° 342° (NNW) 2,299 6.6 -23.9°
Maximum altitude 17:11:59 88° 257° (WSW) 764 3.9 -24.9°
Enters shadow 17:16:27 14° 164° (SSE) 2,008 6.1 -25.8°
Exits shadow 17:19:32 - 164° (SSE) 3,213 7.2 -26.4°
